Regional Weather Roundup
Issued by NWS

Home | Current Version | Previous Version | Text Only | Print | Product List | Glossary On
Versions: 1 2 3 4 5 6 7 8 9 10 11 12 13 14 15 16 17 18 19 20 21 22 23 24 25 26 27 28 29 30 31 32 33 34 35 36 37 38 39 40 41 42 43 44 45 46 47 48 49 50
000
ASUS42 KTBW 280716
RWRFL
FLORIDA REGIONAL WEATHER ROUNDUP
NATIONAL WEATHER SERVICE TAMPA BAY RUSKIN FL
300 AM EDT FRI AUG 28 2015

NOTE: "FAIR" INDICATES FEW OR NO CLOUDS BELOW 12,000 FEET WITH NO
SIGNIFICANT WEATHER AND/OR OBSTRUCTIONS TO VISIBILITY.


FLZ001>010-012>015-112-114-115-280800-
PANHANDLE FLORIDA

CITY           SKY/WX    TMP DP  RH WIND       PRES   REMARKS
PENSACOLA      CLEAR     71  67  87 CALM      29.94F
PENSACOLA NAS  CLEAR     68  66  93 CALM      29.94S
MILTON NAS     CLEAR     67  65  93 CALM      29.94
CRESTVIEW      CLEAR     66  64  93 CALM      29.96F
DUKE FIELD     FAIR      67  64  89 CALM      29.93F
VALPARAISO     PTCLDY    70  65  84 NW1       29.94F
MARY ESTHER    CLEAR     69  65  88 N5        29.93F
TRI COUNTY     FAIR      67  66  97 CALM      29.96F
PANAMA CITY    FAIR      69  66  90 CALM      29.93F
TYNDALL AFB    CLEAR     71  67  89 CALM      29.94F
APALACHICOLA   PTCLDY    74  68  81 NE5       29.94F

STATION/POSITION SKY/WX   TEMP    WIND        PRES    WAVE   SWELL
                          AIR SEA DIR/SP/G            HT/PER HT/PER
                          (F)     (DEG/KT/KT) (MB)    (FT/S) (FT/S)
30.1N   87.6W              83 85   80/  4/  4 1013.5S   0
29.2N   88.2W              80 85  130/  6/  8 1014.3F   1
28.8N   86.0W              82 85   30/  6/  8 1014.3F   1/ 4
PANAMA CITY BEAC           77 84  350/  4/  7 1014.2F
CAPE SAN BLAS    NOT AVBL
TOWER C                    82      20/  9/ 10 1013.9F
28.5N   84.5W              85 87  180/  6/ 10 1013.8F   1/ 4

$$
FLZ011-016>038-118-127-128-134-139-239-280800-
NORTH FLORIDA

CITY           SKY/WX    TMP DP  RH WIND       PRES   REMARKS
MARIANNA       CLEAR     71  66  84 CALM      29.94F
TALLAHASSEE    PTCLDY    76  72  87 CALM      29.96F THUNDER
PERRY          CLOUDY   N/A N/A N/A CALM      29.98F
CROSS CITY       N/A     75  73  93 CALM      29.96F
LAKE CITY      FAIR      72  72 100 CALM      29.99F
GAINESVILLE    CLEAR     74  73  97 CALM      29.99S
MAYPORT NAS    MOCLDY    76  73  91 CALM      30.00R
JACKSONVILLE   CLOUDY    76  75  97 NE3       29.99F
JAX NAS        CLEAR     83  74  74 S5        29.99F
JAX CRAIG      MOCLDY    76  73  91 N3        29.99S
JAX CECIL      PTCLDY    73  73 100 CALM      29.99F
FERNANDINA BEA FAIR      81  75  83 CALM      29.98F
ST AUGUSTINE   CLEAR     75  73  93 SW3       29.99F

STATION/POSITION SKY/WX   TEMP    WIND        PRES    WAVE   SWELL
                          AIR SEA DIR/SP/G            HT/PER HT/PER
                          (F)     (DEG/KT/KT) (MB)    (FT/S) (FT/S)
SHELL POINT                76     320/  3/  7   N/A
KEATON BEACH               76      50/  5/  7 1014.6F
CEDAR KEY                  84     170/ 11/ 12 1014.5F
FERNANDINA                 81 86  270/  3/  4 1015.3R
30.7N   81.3W                 86                N/A     2/ 9
MAYPORT                    79 86  230/  3/  4 1015.9F
31.4N   80.9W              82 85  100/ 10/ 12 1016.2F   3/ 9   2/ 9
ST AUGUSTINE               76 85  240/  4/  5 1016.0F

$$
FLZ040-043>046-052-053-057-058-063-144-280800-
INTERIOR CENTRAL FLORIDA

CITY           SKY/WX    TMP DP  RH WIND       PRES   REMARKS
OCALA          CLEAR     73  70  88 CALM      29.98F
THE VILLAGES     N/A     75  72  88 CALM      29.88F
LEESBURG       PTCLDY    78  73  84 S6        29.98F
SANFORD        PTCLDY    76  71  85 S3        29.98F
ORLANDO EXEC   PTCLDY    74  74 100 CALM      29.98F
ORLANDO INTL   PTCLDY    73  73 100 CALM      29.98F
WINTER HAVEN   PTCLDY    74  73  97 SE3       29.99F
LAKELAND       PTCLDY    73  72  94 CALM      29.98F
BARTOW         FAIR      72 N/A N/A CALM      29.99F
OKEECHOBEE     CLEAR     72  72 100 CALM      29.98F

$$
FLZ041-047-054-059-064-141-147-280800-
EAST CENTRAL FLORIDA

CITY           SKY/WX    TMP DP  RH WIND       PRES   REMARKS
DAYTONA BEACH  PTCLDY    74  72  93 CALM      29.99F
DELAND           N/A     72  72 100 CALM      30.00S
JFK SPACE CTR  CLEAR     75  73  93 N3        29.97F
CAPE CANAVERAL CLEAR     78  75  90 W2        29.96F
PATRICK AFB    CLEAR     78  76  93 SW5       29.97F
MELBOURNE      CLEAR     74  73  97 CALM      29.97F
VERO BEACH     CLEAR     77  74  90 CALM      29.98F
FT PIERCE      FOG       74  73  97 CALM      29.97F VSB 3/4
STUART           N/A     73  72  94 SW3       29.97F

STATION/POSITION SKY/WX   TEMP    WIND        PRES    WAVE   SWELL
                          AIR SEA DIR/SP/G            HT/PER HT/PER
                          (F)     (DEG/KT/KT) (MB)    (FT/S) (FT/S)
28.5N   80.2W              82 84  170/ 12/ 14 1015.4F
28.9N   78.5W              82 85  160/  8/ 10 1015.9S
TRIDENT PIER               81 86  180/  6/  9 1015.9F
28.4N   80.5W                 85                N/A     2/ 4
27.5N   80.2W                 85                N/A     3/ 3

$$
FLZ050-056-061-142-242-148-248-149-249-151-251-155-255-
160-260-280800-
WEST CENTRAL FLORIDA

CITY           SKY/WX    TMP DP  RH WIND       PRES   REMARKS
CRYSTAL RIVER  FAIR      73  72  94 CALM      29.96F
INVERNESS      FAIR      72  72 100 CALM      29.97F
BROOKSVILLE    CLEAR     74  72  93 E3        29.98F
CLEARWATER     CLEAR     77  73  87 SE8       29.95F
TAMPA INTL     PTCLDY    79  72  79 E5        29.97F
TAMPA EXEC     PTCLDY    75  72  88 CALM      29.99F
PLANT CITY     PTCLDY    75  73  94 CALM      29.99F
MACDILL AFB    CLEAR     76  76 100 SE7       29.96F
PETER O KNIGHT CLEAR     79  73  83 E5        29.96F
ST PETERSBURG  CLEAR     80  73  79 S9        29.94F
SARASOTA       CLEAR     75  72  90 SE6       29.94F
VENICE         NOT AVBL

STATION/POSITION SKY/WX   TEMP    WIND        PRES    WAVE   SWELL
                          AIR SEA DIR/SP/G            HT/PER HT/PER
                          (F)     (DEG/KT/KT) (MB)    (FT/S) (FT/S)
CEDAR KEY                  84     170/ 11/ 12 1014.5F
28.5N   84.5W              85 87  180/  6/ 10 1013.8F   1/ 4
27.3N   84.2W                 87                N/A     2/ 4
CLEARWATER BEACH           80 88  130/  5/  9 1015.3F
MIDDLE TAMPA BAY           79     150/  8/ 11 1015.5F
VENICE                     77 88   90/  6/  7 1013.8F

$$
FLZ066-069-070-075>078-162-262-165-265-280800-
SOUTHWEST FLORIDA AND KEYS

CITY           SKY/WX    TMP DP  RH WIND       PRES   REMARKS
PUNTA GORDA    PTCLDY    75  74  96 E6        29.97F
FT MYERS       CLEAR     75  74  96 SE5       29.94F
SOUTHWEST INTL CLEAR     76  73  91 E3        29.95F
NAPLES         PTCLDY    79  75  87 E3        29.95F
MARATHON       CLEAR     84  76  76 SE7       29.94S
KEY WEST NAS   CLOUDY    82  74  76 CALM      29.94S
KEY WEST INTL  CLOUDY    83  76  79 SW5       29.95R

STATION/POSITION SKY/WX   TEMP    WIND        PRES    WAVE   SWELL
                          AIR SEA DIR/SP/G            HT/PER HT/PER
                          (F)     (DEG/KT/KT) (MB)    (FT/S) (FT/S)
VENICE                     77 88   90/  6/  7 1013.8F
NAPLES                        88              1015.5F
26.0N   85.6W              84 88   CALM  /  2 1013.6F   1/ 4   2/ 4
DRY TORTUGAS               82     160/ 13/ 16 1014.1F
NW FL BAY                  87     140/ 11/ 13 1014.3
SAND KEY                   84     250/  5     1014.2R
LONG KEY                   84 87  120/  9/ 10 1014.6F
MOLASSES REEF              84 87  110/  7/  8 1014.1F

$$
FLZ067-068-071>074-168-172>174-280800-
SOUTHEAST FLORIDA

CITY           SKY/WX    TMP DP  RH WIND       PRES   REMARKS
W PALM BEACH   PTCLDY    78  74  87 SE6       29.97F
FT LAUDER-EXEC PTCLDY    82  74  76 SE6       29.95F
FT LAUDERDALE  MOCLDY    82  75  79 SE8       29.95F
POMPANO BEACH  CLEAR     83  73  72 SE10      29.96F
PEMBROKE PINES PTCLDY    81  74  79 SE7       29.96F
OPA LOCKA      PTCLDY    80  75  84 SE6       29.96F
MIAMI          MOCLDY    82  76  81 SE6       29.95F
WEST KENDALL   MOCLDY    80  76  87 SE5       29.96F
HOMESTEAD      MOCLDY    81  75  82 E5        29.95F

STATION/POSITION SKY/WX   TEMP    WIND        PRES    WAVE   SWELL
                          AIR SEA DIR/SP/G            HT/PER HT/PER
                          (F)     (DEG/KT/KT) (MB)    (FT/S) (FT/S)
PORT EVERGLADES            83     140/ 11/ 14 1015.1F
VIRGINIA KEY               83 87  110/  6/ 10 1015.0F
LAKE WORTH                 82 86  150/ 12/ 13 1014.9F
SETTLEMENT POINT           81     150/  9/ 12 1015.5F

$$




USA.gov is the U.S. government's official web portal to all federal, state and local government web resources and services.